Regional Weather Roundup
Issued by NWS Grand Forks, ND

Home | Current Version | Previous Version | Text Only | Print | Product List | Glossary On
Versions: 1 2 3 4 5 6 7 8 9 10 11 12 13 14 15 16 17 18 19 20 21 22 23 24 25 26 27 28 29 30 31 32 33 34 35 36 37 38 39 40 41 42 43 44 45 46 47 48 49 50
000
ASUS43 KFGF 042231
RWRFGF
PRAIRIE TO PINES  WEATHER ROUNDUP
NATIONAL WEATHER SERVICE EASTERN NORTH DAKOTA/GRAND FORKS ND
400 PM CST WED MAR 04 2015

 **SATELLITE DATA USED TO AUGMENT SKY COVER AT AUTOMATED STATIONS**
 *****  WEATHER ACROSS EASTERN NORTH DAKOTA  *****

CITY           SKY/WX    TMP DP  RH WIND       PRES   REMARKS
GRAND FORKS    PTSUNNY    3  -9  57 NW15G21   30.35R WCI -16
GRAND FRKS AFB SUNNY      3 -11  53 NW15G21   30.34R WCI -16
GRAND FRKS NWS   N/A      5 N/A N/A N6          N/A  WCI  -6
DEVILS LAKE    SUNNY      0 -13  55 NW15      30.31S WCI -20
FARGO          CLOUDY     6  -6  57 NW18      30.35R WCI -13
WAHPETON ARPT  CLOUDY     3  -8  60 NW13      30.36R WCI -14
$$

 ***** WEATHER ACROSS CENTRAL AND WESTERN NORTH DAKOTA  *****

CITY           SKY/WX    TMP DP  RH WIND       PRES   REMARKS
BISMARCK       SUNNY      6 -10  47 NW13G18   30.34S WCI -10
MINOT          SUNNY     -1 -13  56 NW9       30.32R WCI -16
JAMESTOWN      MOSUNNY    1 -10  60 NW15      30.32R WCI -18
MINOT AFB      SUNNY     -1 -10  65 NW12      30.32R WCI -19
GARRISON         N/A      0 -11  59 NW10      30.31S WCI -16
WILLISTON        N/A      5 -11  47 W7        30.30F WCI  -7
DICKINSON      SUNNY     11 -10  38 NW10      30.20F WCI  -3
HETTINGER      SUNNY     12 -10  36 NW12G21   30.22F WCI  -2
$$

 *****  OTHER AIRPORT OBSERVATIONS IN OUR AREA  *****

CITY           SKY/WX    TMP DP  RH WIND       PRES   REMARKS
WALHALLA         N/A      1  -9  60 NW12      30.34S WCI -15
GRAFTON AIRPOR NOT AVBL
VALLEY CITY AR FLURRIES   1  -8  66 NW17      30.32R WCI -19
CANDO          FAIR       0  -9  65 W15       30.31S WCI -20
CAVALIER APRT  FAIR       1  -9  60 NW13      30.34S WCI -16
GWINNER        CLOUDY     5  -6  61 NW15G24   30.35S WCI -13
SHEYENNE NWR     N/A      3  -9  58 NW12      29.95S WCI -13
ROLLA          FAIR       0 -11  60 NW8       30.26S WCI -15
 ***** THE ABOVE OBSERVATIONS ARE NON NWS ARE NOT QUALITY
       CONTROLLED AND MAY MIS-REPORT RAIN FOR SNOW...
$$

  *****  WEATHER ACROSS NORTHERN MINNESOTA  *****

CITY           SKY/WX    TMP DP  RH WIND       PRES   REMARKS
FLAG ISLAND    SUNNY      1  -9  60 NW12      30.20R WCI -15
WARROAD        SUNNY      3 -11  51 W12       30.24R WCI -13
ROSEAU         SUNNY      0  -9  65 W14G21    30.26R WCI -19
HALLOCK        PTSUNNY    0  -8  71 NW14      30.33R WCI -19
THF RVR FALLS  PTSUNNY   -2  -9  71 W15       30.29R WCI -22
BAUDETTE       MOSUNNY    0 -11  59 W12       30.20R WCI -17
WASKISH        SUNNY      1 -11  55 W13       30.23R WCI -16
CROOKSTON      SUNNY      3  -8  60 NW14G23   30.34S WCI -15
$$
  *****  WEATHER ACROSS CENTRAL AND WEST MINNESOTA  *****

CITY           SKY/WX    TMP DP  RH WIND       PRES   REMARKS
FOSSTON        PTSUNNY   -2 -11  65 NW10G18   30.29R HAZE    WCI -19
BEMIDJI        CLOUDY    -3 -11  70 NW20      30.24R HAZE    WCI -26
PARK RAPIDS    CLOUDY     1 -13  51 NW20      30.22R WCI -20
ELBOW LAKE     CLOUDY     1  -8  68 NW16G22   30.31R HAZE    WCI -19
WADENA         SUNNY      0 -13  55 NW14G21   30.26R WCI -19
DETROIT LAKES  MOSUNNY    3  -6  66 NW15      30.28R WCI -15
MOORHEAD       MIX PCPN   5  -2  72 NW15      30.35R WCI -13
FERGUS FALLS   MOSUNNY    1  -9  60 NW16      30.36R HAZE    WCI -18
MORRIS MN      PTSUNNY    3  -4  72 NW20G25   30.31S HAZE    WCI -18
STAPLES        MOSUNNY    0 -13  55 NW15      30.25R WCI -20
$$
  *****  WEATHER ELSEWHERE ACROSS MINNESOTA  *****

CITY           SKY/WX    TMP DP  RH WIND       PRES   REMARKS
DULUTH         SUNNY      3 -16  40 NW10      30.12R WCI -12
INTRNTL FALLS  SUNNY      1 -14  49 NW10      30.18R WCI -15
ELY            MOSUNNY    1 -15  46 NW7       30.11R WCI -11
CLOQUET        SUNNY      3 -18  36 W15G21    30.17R WCI -15
WHEATON        MOSUNNY    0  -9  65 NW16      30.37R HAZE    WCI -21
BRAINERD       SUNNY      3 -15  43 NW13G22   30.23R WCI -14
HIBBING        CLOUDY     2 -12  52 NW17      30.15R WCI -18
ALEXANDRIA     PTSUNNY   -1 -12  59 NW16      30.28R WCI -21
SAINT CLOUD    PTSUNNY    5  -9  52 NW18      30.26R WCI -15
MINNEAPOLIS    MOSUNNY    9  -8  46 NW22      30.26R WCI -11
$$

  *****  WEATHER ACROSS SOUTH DAKOTA  *****

CITY           SKY/WX    TMP DP  RH WIND       PRES   REMARKS
SIOUX FALLS    MOSUNNY    8  -4  58 NW23G29   30.33R WCI -13
BROOKINGS      NOT AVBL
WATERTOWN      MOSUNNY    2 -10  57 NW20      30.28R WCI -19
HURON          MOSUNNY    8  -5  55 NW21      30.37R WCI -12
SISSETON       NOT AVBL
ABERDEEN       MOSUNNY    3 -11  52 NW21G26   30.37S WCI -18
MITCHELL       PTSUNNY   10   0  63 N16G23    30.38R WCI  -7
PIERRE         MOSUNNY   14  -4  44 NW21G28   30.31S WCI  -4
MOBRIDGE       MOSUNNY   13  -8  39 NW14G24   30.29R WCI  -2
RAPID CITY     SUNNY     17   2  51 N17       30.19S WCI   1
$$

  *****  SOME WEATHER IN NEARBY STATES *****

CITY           SKY/WX    TMP DP  RH WIND       PRES   REMARKS
GLASGOW MT     SUNNY     15  -6  39 CALM      30.21F
GREAT FALLS MT SUNNY     36  10  34 SW17      30.03F
CHEYENNE WY    SUNNY     18  -5  36 NW15      30.04R WCI   4
SCOTTSBLUFF NE SUNNY     27   2  34 NW14G22   30.16S WCI  16
OMAHA NE       MOSUNNY   28  -2  27 NW25G32   30.30R WCI  13
DES MOINES IA  MOSUNNY   28   7  41 NW22G30   30.24R WCI  14
DAVENPORT IA   MOSUNNY   16   2  54 NW12      30.27S WCI   3
CHICAGO IL     CLOUDY    20   0  41 NW18      30.18R WCI   5
EAU CLAIRE WI  SUNNY     10 -10  40 NW15      30.20R WCI  -7
LA CROSSE WI   PTSUNNY   16  -3  43 W20G28    30.24R WCI  -1
$$

  *****  SOME NATIONAL WEATHER *****

CITY           SKY/WX    TMP DP  RH WIND       PRES   REMARKS
LA GUARDIA NY  CLOUDY    44  38  79 SW10      29.86F
RALEIGH NC     PTSUNNY   75  56  51 SW18      29.85F
ATLANTA GA     PTSUNNY   75  59  57 S13G23    29.92F
NEW ORLEANS LA PTSUNNY   80  67  64 S15       29.90F
OKLAHOMA CITY  LGT SNOW  27  19  74 N17G26    30.21R WCI  14
ALBUQUERQUE NM PTSUNNY   47  19  33 W15G28    29.96R
SALT LAKE CITY MOSUNNY   39  19  44 N7        30.22S
LOS ANGELES CA MOSUNNY   67  40  37 SW10      30.08S
BOISE ID       SUNNY     43   9  24 W10       30.26F
SEATTLE WA     MOSUNNY   51  21  30 SW6       30.28F
$$

*** WEATHER ACROSS MANITOBA...SASKATCHEWAN AND ONTARIO ***
                ***ONTARIO***

CITY           SKY/WX    TMP DP  RH WIND       PRES   REMARKS
GERALDTON      PTSUNNY    3 -11  51 W12G18    29.95R WCI -13
THUNDER BAY    MOSUNNY    5 -11  47 W15G24    30.10R WCI -13
SIOUX LOOKOUT  SUNNY      1 -15  46 NW13      30.09R WCI -16
TORONTO        PTSUNNY   28  18  64 NW13G18   29.89S WCI  18
BIG TROUT LK   MOSUNNY   -2 -11  65 W13G20    30.00S WCI -21
PICKLE LAKE    SUNNY      3 -17  39 NW7       30.01R WCI  -9
DRYDEN         SUNNY      1 -13  51 W14G20    30.11R WCI -17
KENORA         SUNNY      1 -15  46 NW8       30.16R WCI -12
$$
                *** MANITOBA***

CITY           SKY/WX    TMP DP  RH WIND       PRES   REMARKS
BRANDON        SUNNY     -4 -13  65 W17       30.30S WCI -26
DAUPHIN        SUNNY      0 -11  60 W24G30    30.26F WCI -24
ISLAND LAKE    MOSUNNY    0 -13  55 W13G21    30.09F WCI -18
PILOT MOUND      N/A     -4 -13  65 W12         N/A  WCI -22
THE PAS        MOSUNNY    1 -17  42 W10G18    30.20F WCI -14
THOMPSON       MOSUNNY    0 -17  46 W10G20    30.08S WCI -17
WINNIPEG       SUNNY     -2 -13  60 NW16      30.33S WCI -23
LYNN LAKE      SUNNY     -4 -17  54 W9G17     30.04F WCI -20
CHURCHILL      CRYSTALS -15 -24  64 NW16      30.01R WCI -39
GILLAM         SUNNY     -8 -18  59 W10       30.04S WCI -26
$$
                ***SASKATCHEWAN***

CITY           SKY/WX    TMP DP  RH WIND       PRES   REMARKS
ESTEVAN        MOSUNNY   -6 -17  59 W8        30.31F WCI -21
KINDERSLEY     PTSUNNY    7  -4  61 S14       30.11F WCI -10
LLOYDMINSTER   PTSUNNY    7  -6  56 S14G21    30.01F WCI -10
PRINCE ALBERT  PTSUNNY    1 -13  51 SW10      30.20F WCI -14
REGINA         SUNNY     -6 -17  59 W7        30.27F WCI -20
YORKTON        SUNNY     -2 -15  55 W10       30.26S WCI -19
N. BATTLEFORD  SUNNY      1  -9  60 SW12      30.17F WCI -15
LA RONGE       PTSUNNY    3 -13  47 S5        30.12F WCI  -6
SASKATOON      MOSUNNY   -2 -13  60 SW14      30.23F WCI -21
SWIFT CURRENT  SUNNY      7  -6  56 S10       30.09F WCI  -8
$$
NOTE: THESE ARE AUTOMATED STATIONS WITH LIMITED QUALITY CONTROL
      "FAIR" INDICATES FEW OR NO CLOUDS BELOW 12,000 FEET WITH NO
      SIGNIFICANT WEATHER AND/OR OBSTRUCTIONS TO VISIBILITY.
      SKY/WX - SKY CONDITION AND SIGNIFICANT WEATHER.
      TMP - AIR TEMPERATURE.    DP   - DEWPOINT TEMPERATURE.
      RH  - RELATIVE HUMIDITY.  PRES - PRESSURE.
      HX  - HEAT INDEX.         WCI  - WIND CHILL INDEX.
$



USA.gov is the U.S. government's official web portal to all federal, state and local government web resources and services.